Wind_Speed
25 28 27 23 20 22 23 21 20 16 15 12 10 9 8 8 10 11 10 9 11 10 11 11 11 11 14 10 9 12 13 15 10 16 21 23 26 26 26 24 24 16 21
31 29 23 21 20 19 18 17 16 16 13 13 11 10 10 8 8 10 10 8 8 8 8 9 9 8 8 10 13 11 13 12 17 22 23 28 27 29 29 30 25 28 22
30 25 21 19 19 17 14 13 14 14 14 14 13 13 11 8 7 5 7 7 7 3 3 4 4 4 4 7 10 9 9 10 15 17 26 29 31 31 33 31 34 24 24
27 23 20 16 15 13 12 10 9 10 8 8 9 8 9 8 5 7 5 1 3 4 5 5 7 6 7 8 13 11 9 11 14 15 18 23 26 29 27 30 29 23 26
22 19 16 15 14 11 11 10 11 9 9 9 6 5 4 3 5 7 6 3 5 6 8 9 10 12 9 14 16 15 13 14 15 18 18 19 20 23 24 25 27 27 27
14 14 12 11 10 6 7 11 10 10 9 5 7 9 6 8 7 4 8 13 10 10 11 13 13 13 15 17 17 15 16 17 18 20 21 22 23 25 26 27 25 26 23
10 9 8 10 10 9 8 9 10 9 10 12 12 10 9 10 8 12 13 13 13 12 13 14 14 14 17 17 19 20 18 18 18 19 24 27 29 30 31 28 26 30 28
10 10 11 14 12 11 13 13 13 13 12 11 12 12 14 15 17 17 18 20 19 18 16 16 19 21 22 24 25 24 16 13 15 22 27 28 30 32 34 36 31 32 32
12 15 16 15 15 14 16 18 17 14 15 16 15 15 17 17 17 20 20 23 24 25 21 19 22 23 23 24 21 15 12 18 23 24 20 25 31 35 36 37 29 25 25
20 19 18 16 18 17 16 17 18 19 17 17 17 16 18 20 18 20 22 26 28 28 22 19 19 20 19 12 9 12 19 25 26 23 27 31 33 35 31 33 37 24 25
9 11 11 13 16 16 12 12 13 14 16 17 17 17 18 18 19 18 20 21 22 21 15 15 17 14 12 8 16 20 25 30 29 31 33 34 33 31 30 25 16 24 30
12 7 11 9 8 7 11 9 10 11 13 16 17 18 18 18 18 20 18 16 17 17 15 15 13 9 13 19 23 28 31 32 31 30 32 30 31 28 19 29 30 30 33
6 4 8 8 7 6 7 10 12 13 15 17 15 14 12 9 8 6 7 7 8 15 14 11 13 16 20 24 29 31 25 29 23 24 24 27 18 24 27 25 34 35 37
8 6 6 7 9 10 11 14 14 16 17 16 13 10 7 7 6 6 7 7 8 8 9 11 13 19 24 24 23 24 8 11 14 17 22 16 25 21 26 34 35 36 34
10 12 13 12 13 15 15 17 15 17 16 12 9 10 9 7 7 8 9 10 8 8 11 14 19 20 18 19 22 10 13 14 15 16 21 23 16 27 30 32 29 34 25
15 15 16 14 15 18 17 14 12 11 8 9 9 10 9 10 8 9 8 8 7 9 12 16 18 18 19 23 21 14 14 14 14 18 23 14 22 26 31 28 29 26 24
20 18 17 15 19 18 16 15 13 10 11 13 12 12 12 12 10 8 7 8 10 11 14 17 20 22 23 26 14 12 14 15 17 20 11 19 23 24 23 24 27 22 26
21 20 20 21 21 13 15 15 16 13 16 17 17 20 18 17 13 8 7 10 14 11 15 20 24 25 23 14 12 14 18 18 15 10 16 21 22 17 22 25 23 23 28
22 17 19 21 17 11 9 12 13 18 18 19 20 20 24 23 17 14 14 17 19 20 21 20 19 18 9 11 13 17 19 9 10 14 20 17 12 21 24 25 23 27 31
10 9 11 13 12 11 14 16 21 19 19 20 21 22 24 26 25 26 25 24 25 26 26 24 20 8 7 12 14 14 9 13 15 19 9 11 17 22 25 25 24 27 27
8 10 12 14 12 13 16 16 13 12 17 17 26 25 27 31 34 31 29 25 22 22 20 13 5 5 8 12 14 14 16 18 16 5 10 14 20 25 26 23 26 26 26
10 13 12 18 19 18 17 17 19 19 20 20 21 22 23 28 34 34 30 24 21 16 14 10 9 8 13 15 16 16 15 13 8 10 13 17 22 23 22 26 24 24 24
13 14 16 14 15 17 21 22 22 21 23 24 24 22 21 30 30 33 31 26 23 19 15 14 15 14 16 13 16 16 18 15 10 10 12 17 19 24 24 23 24 23 23
17 16 15 17 18 18 19 19 19 19 23 23 18 15 8 16 23 30 28 27 25 20 16 13 10 10 11 13 17 14 15 11 9 10 14 16 21 25 21 23 21 23 23
18 18 18 19 20 21 21 13 2 5 8 10 13 15 21 23 21 16 18 21 18 16 14 10 6 11 12 15 12 14 11 9 10 12 13 18 23 22 19 22 22 23 23
24 24 24 25 27 15 4 3 7 11 13 15 16 18 20 24 20 19 18 14 7 8 4 5 6 11 9 8 11 10 7 9 9 11 16 20 21 20 20 21 21 21 21
Wind_Direction
124 116 111 107 108 106 107 115 115 110 111 114 115 110 100 91 94 101 100 93 88 84 78 67 64 50 45 44 38 36 21 8 337 336 326 336 336 338 337 338 336 340 330
121 118 120 116 114 115 119 115 124 124 126 127 125 123 114 109 106 85 105 91 93 83 73 66 59 44 39 17 13 15 2 2 351 333 335 335 334 335 334 332 330 324 326
122 118 118 122 120 115 118 117 127 124 118 128 134 125 119 112 113 93 100 96 77 59 31 16 5 13 341 332 355 348 353 332 339 333 326 334 332 334 326 323 320 322 316
124 124 122 119 121 130 129 118 128 119 129 137 132 139 151 152 140 138 119 90 44 2 347 315 326 294 283 285 316 309 307 299 313 305 309 312 314 316 314 312 311 314 315
123 125 127 131 132 142 154 153 153 157 154 139 143 153 165 217 251 228 176 250 276 286 293 290 290 304 271 294 296 290 273 273 289 288 296 299 301 307 305 306 308 309 310
133 132 136 138 153 173 163 188 172 173 174 215 219 213 230 242 227 222 264 267 263 257 275 284 276 277 283 287 269 276 264 260 276 275 290 295 294 304 302 303 305 311 309
138 150 153 171 185 183 190 179 187 199 216 228 229 224 243 251 236 240 256 253 267 272 281 294 293 289 289 287 281 282 271 272 277 279 302 300 298 304 302 299 302 298 293
190 192 200 199 198 202 209 213 219 225 218 227 237 246 252 255 259 261 262 259 261 272 283 288 286 287 288 278 277 278 255 257 276 298 302 300 303 305 303 303 301 298 292
205 212 200 196 192 204 212 224 238 231 232 237 245 256 258 263 262 260 260 262 261 262 267 278 283 284 293 285 262 260 276 293 306 309 299 302 308 309 310 306 293 285 281
226 217 209 208 206 214 219 223 237 238 242 244 247 254 260 259 264 265 266 269 261 255 261 269 273 294 294 270 276 297 297 304 314 308 304 306 307 309 311 303 287 263 272
224 198 215 210 217 222 230 232 232 235 238 245 252 258 263 269 272 271 270 269 259 258 261 275 298 302 289 286 302 298 299 309 306 304 304 304 304 303 298 297 282 283 283
198 187 180 199 196 217 229 240 246 245 250 257 267 272 274 279 273 275 271 258 244 246 277 298 298 298 281 301 301 300 303 303 303 301 300 298 296 296 310 314 309 306 300
141 184 213 212 208 226 218 241 253 260 261 264 268 274 283 301 310 290 259 251 251 285 288 277 284 286 290 293 293 299 301 303 303 293 293 295 306 320 321 315 315 315 306
201 201 225 231 242 262 267 269 270 271 271 269 257 243 253 280 266 251 262 258 272 262 274 276 282 289 293 294 298 309 316 318 311 310 316 310 320 322 320 323 315 312 302
202 222 234 247 257 264 271 271 264 269 269 259 232 235 246 232 243 237 252 265 260 265 282 291 293 301 302 303 309 294 314 313 310 314 314 311 319 324 324 322 317 313 306
225 241 249 253 269 277 269 260 260 270 248 243 255 238 237 246 248 250 264 271 269 268 279 283 289 291 291 296 287 304 303 304 307 313 315 314 325 323 323 321 325 317 313
222 239 253 265 276 278 230 232 231 229 230 241 242 234 227 229 229 245 263 270 273 277 273 276 276 280 284 294 290 307 305 304 308 311 322 328 323 323 327 332 325 319 320
233 242 245 252 255 264 248 234 226 224 225 251 248 239 230 227 224 235 245 269 279 270 268 276 277 279 279 285 316 315 313 306 317 334 334 329 327 342 343 332 325 325 324
221 231 237 239 245 258 285 245 255 224 236 247 254 250 234 225 223 230 234 247 261 271 274 273 278 278 278 315 316 318 313 318 336 332 329 339 359 344 339 330 323 324 325
210 226 233 210 225 260 267 257 248 239 249 254 239 234 231 213 217 225 233 240 250 259 264 270 287 279 333 330 327 329 340 333 328 324 339 345 340 338 336 327 324 324 323
229 271 259 227 233 248 263 269 276 240 257 262 261 240 233 218 220 223 229 233 243 251 265 255 232 300 315 323 323 314 325 317 316 309 324 334 336 337 337 326 323 321 321
228 252 264 238 237 241 250 264 268 254 268 274 284 247 241 228 223 223 222 228 237 198 200 238 260 281 307 308 310 310 320 304 288 303 318 330 335 338 331 327 322 321 322
225 242 262 270 275 277 261 259 253 252 252 257 266 265 242 225 233 231 230 236 231 214 230 238 262 283 304 293 299 308 307 291 291 304 320 332 336 335 332 326 320 319 323
223 233 253 271 280 286 294 289 278 272 267 272 281 290 286 265 267 254 254 257 222 211 229 227 257 284 286 287 295 282 280 284 295 316 327 332 333 335 327 325 317 317 320
230 235 242 251 262 269 272 286 118 347 343 335 332 327 318 304 264 284 292 261 238 240 231 219 249 272 277 289 286 288 280 287 308 317 323 328 331 330 325 321 315 316 318
230 233 239 247 251 248 148 42 22 5 356 344 337 335 322 306 303 298 242 265 255 218 224 265 266 282 290 296 306 295 284 300 304 312 321 326 328 323 321 317 316 315 316
Height
814 815 816 819 825 828 829 833 836 840 842 845 848 851 852 853 855 856 857 858 858 859 859 859 860 861 861 862 861 862 864 865 863 861 860 858 853 851 849 846 843 839 839
817 815 822 824 826 831 834 835 837 839 842 844 847 851 853 855 856 858 859 859 860 860 860 860 861 861 860 862 863 864 862 864 863 858 855 853 850 847 844 841 839 836 833
814 820 826 827 827 831 836 837 839 840 842 844 847 849 853 856 857 858 859 860 860 861 862 862 860 860 860 862 862 860 860 862 862 861 854 850 847 842 840 838 837 833 832
815 822 827 829 829 833 837 840 841 841 844 846 849 849 850 854 857 857 859 860 861 861 861 861 861 860 859 858 859 860 859 858 858 858 856 852 848 843 841 836 831 830 826
820 824 827 831 832 836 839 841 842 842 846 847 849 851 852 853 855 855 857 858 858 859 859 860 859 858 857 856 856 856 856 855 855 853 850 848 844 841 838 833 828 824 820
825 825 829 830 835 839 841 842 841 842 843 846 849 850 850 852 853 856 857 857 857 856 856 856 855 854 854 853 851 850 850 851 849 849 846 843 839 836 833 829 824 818 808
825 829 827 831 838 838 843 843 843 842 843 845 849 849 851 851 852 853 854 855 854 853 852 851 851 850 850 848 848 847 847 846 845 845 843 839 833 832 827 822 819 815 809
826 826 830 830 831 837 841 841 842 843 841 844 845 847 849 848 849 849 850 850 851 849 847 847 847 845 846 844 843 842 841 842 841 839 838 834 829 826 822 816 812 807 803
822 826 830 827 827 834 836 838 843 843 842 841 842 844 845 844 845 847 846 845 845 844 843 844 844 842 841 839 837 836 836 837 834 833 830 828 824 819 815 811 807 802 796
822 824 826 827 828 831 833 834 838 841 840 840 838 839 841 841 841 842 842 841 839 838 839 839 838 838 835 834 833 832 832 829 826 825 823 819 817 813 809 807 801 796 793
818 821 823 827 827 830 831 832 835 838 836 838 836 835 837 836 836 837 836 835 834 835 835 835 834 833 832 831 830 828 826 823 820 817 814 812 810 806 802 800 797 793 786
816 820 823 827 828 826 828 831 833 833 833 833 832 832 832 831 830 831 830 830 829 830 831 832 829 830 829 827 825 822 819 817 813 810 808 807 804 799 799 796 791 785 780
818 821 824 824 823 824 827 829 830 830 829 828 828 828 828 827 827 826 826 827 827 828 827 826 826 825 824 822 820 816 814 811 809 807 804 802 799 796 792 787 782 776 769
816 818 821 821 820 823 824 826 826 825 825 824 824 823 824 823 823 823 823 823 824 823 823 822 822 821 819 816 814 811 809 807 805 803 800 797 794 790 787 782 773 767 758
812 813 817 819 819 820 819 821 820 820 819 820 820 820 820 820 820 820 821 821 820 820 820 819 817 815 813 811 809 807 805 803 801 799 795 792 788 785 780 775 769 761 755
810 812 814 815 814 814 815 816 816 815 816 817 817 817 817 818 818 818 818 817 817 816 815 814 813 811 810 807 805 803 801 799 797 794 790 787 783 779 774 769 764 758 750
806 806 808 809 809 809 809 811 811 812 813 812 812 813 813 814 815 816 815 815 815 814 812 810 808 806 805 803 801 799 797 794 792 789 786 783 779 774 770 765 760 753 746
799 801 802 804 805 805 805 804 806 807 806 806 806 808 809 810 811 812 813 812 810 809 807 805 803 802 800 799 797 795 792 789 787 785 783 779 774 771 767 762 756 751 744
795 797 798 799 800 801 800 800 800 800 800 800 801 801 802 804 807 807 807 805 804 802 801 800 799 797 796 794 793 790 787 785 783 781 778 774 771 768 764 760 753 748 742
793 794 794 794 795 795 795 795 794 794 794 793 793 793 793 798 798 798 797 796 795 794 793 793 794 793 791 790 789 786 784 782 780 777 774 771 768 766 762 756 750 744 738
789 790 790 790 790 790 789 788 789 788 787 787 785 783 784 785 786 787 787 787 787 785 787 789 787 785 784 784 783 782 779 777 775 773 770 767 765 762 758 753 748 742 736
785 787 786 786 785 785 784 783 783 782 781 780 778 777 775 775 775 776 776 777 777 778 779 779 780 779 779 778 778 777 775 773 770 768 766 764 761 758 754 750 744 739 734
779 781 781 781 781 780 779 777 776 775 774 773 772 771 769 768 770 769 769 768 768 768 769 769 772 773 773 773 772 771 770 768 766 765 763 760 757 754 750 746 741 737 733
773 775 776 776 775 775 774 772 771 769 768 766 766 766 766 765 764 764 763 763 761 759 760 762 765 767 767 767 767 765 764 763 762 761 759 756 753 750 746 743 739 735 731
768 770 771 770 769 768 766 765 765 764 764 763 763 761 761 762 760 761 758 758 758 757 757 757 758 763 764 763 761 761 759 758 758 757 755 753 749 746 743 739 736 733 729
761 762 764 764 763 763 763 762 763 763 762 761 759 756 757 756 754 752 752 755 755 755 754 756 757 759 759 758 757 756 755 754 754 752 751 749 745 741 739 736 734 731 728